TimeCST,TemperatureF,Dew PointF,Humidity,Sea Level PressureIn,VisibilityMPH,Wind Direction,Wind SpeedMPH,Gust SpeedMPH,PrecipitationIn,Events,Conditions,WindDirDegrees,DateUTC
12:15 AM,-11.2,-17.7,73,30.36,10.0,West,9.2,-,N/A,,Clear,260,2013-12-06 06:15:00
12:35 AM,-11.4,-17.7,74,30.35,10.0,West,6.9,-,N/A,,Clear,280,2013-12-06 06:35:00
12:55 AM,-12.3,-18.2,75,30.35,10.0,West,8.1,-,N/A,,Clear,280,2013-12-06 06:55:00
1:15 AM,-14.4,-20.4,75,30.35,10.0,WSW,6.9,-,N/A,,Clear,250,2013-12-06 07:15:00
1:35 AM,-13.2,-18.9,75,30.35,10.0,West,4.6,-,N/A,,Clear,280,2013-12-06 07:35:00
1:55 AM,-11.0,-16.8,76,30.35,10.0,WNW,11.5,-,N/A,,Clear,290,2013-12-06 07:55:00
5:35 AM,-13.4,-19.3,75,30.38,10.0,WSW,4.6,-,N/A,,Clear,250,2013-12-06 11:35:00
5:55 AM,-13.9,-20.2,73,30.38,10.0,West,4.6,-,N/A,,Clear,260,2013-12-06 11:55:00
6:15 AM,-14.8,-20.6,75,30.39,10.0,West,5.8,-,N/A,,Clear,270,2013-12-06 12:15:00
6:35 AM,-15.7,-21.3,76,30.40,10.0,West,5.8,-,N/A,,Clear,270,2013-12-06 12:35:00
6:55 AM,-16.2,-22.2,74,30.41,10.0,West,5.8,-,N/A,,Clear,270,2013-12-06 12:55:00
7:15 AM,-16.6,-22.5,74,30.41,10.0,West,8.1,-,N/A,,Clear,280,2013-12-06 13:15:00
7:35 AM,-14.6,-20.2,76,30.42,10.0,WNW,9.2,-,N/A,,Clear,290,2013-12-06 13:35:00
7:55 AM,-16.1,-22.2,74,30.42,10.0,WNW,8.1,-,N/A,,Clear,290,2013-12-06 13:55:00
8:15 AM,-15.3,-21.1,75,30.43,10.0,West,9.2,-,N/A,,Clear,280,2013-12-06 14:15:00
8:35 AM,-15.7,-21.6,75,30.44,10.0,West,8.1,-,N/A,,Clear,280,2013-12-06 14:35:00
8:55 AM,-14.8,-20.7,75,30.45,10.0,West,6.9,-,N/A,,Clear,270,2013-12-06 14:55:00
9:15 AM,-13.2,-19.3,74,30.45,10.0,West,10.4,-,N/A,,Clear,280,2013-12-06 15:15:00
9:35 AM,-12.1,-18.4,74,30.45,10.0,WNW,9.2,-,N/A,,Clear,290,2013-12-06 15:35:00
9:55 AM,-9.4,-15.9,73,30.46,10.0,WNW,8.1,-,N/A,,Clear,290,2013-12-06 15:55:00
10:15 AM,-7.2,-14.1,72,30.47,10.0,NW,8.1,-,N/A,,Clear,310,2013-12-06 16:15:00
10:35 AM,-5.8,-13.0,71,30.48,10.0,NW,11.5,-,N/A,,Scattered Clouds,310,2013-12-06 16:35:00
10:55 AM,-5.1,-12.6,70,30.48,10.0,WNW,8.1,-,N/A,,Scattered Clouds,300,2013-12-06 16:55:00
11:15 AM,-4.0,-11.9,69,30.48,10.0,NW,11.5,-,N/A,,Clear,310,2013-12-06 17:15:00
11:35 AM,-3.3,-11.2,69,30.48,10.0,NW,11.5,-,N/A,,Clear,310,2013-12-06 17:35:00
11:55 AM,-3.3,-11.6,68,30.48,10.0,NW,10.4,-,N/A,,Clear,310,2013-12-06 17:55:00
12:15 PM,-3.1,-11.6,67,30.47,10.0,NW,10.4,-,N/A,,Clear,310,2013-12-06 18:15:00
12:35 PM,-2.7,-11.4,67,30.47,10.0,NW,11.5,-,N/A,,Clear,310,2013-12-06 18:35:00
12:55 PM,-2.4,-11.2,66,30.47,10.0,WNW,8.1,-,N/A,,Clear,300,2013-12-06 18:55:00
1:15 PM,-2.2,-11.0,66,30.47,10.0,West,8.1,-,N/A,,Clear,280,2013-12-06 19:15:00
1:35 PM,-1.3,-10.3,66,30.46,10.0,WNW,6.9,-,N/A,,Clear,300,2013-12-06 19:35:00
1:55 PM,-0.8,-9.9,65,30.46,10.0,WNW,8.1,-,N/A,,Clear,290,2013-12-06 19:55:00
2:15 PM,-0.8,-10.1,65,30.46,10.0,WNW,5.8,-,N/A,,Clear,300,2013-12-06 20:15:00
2:35 PM,-0.4,-9.6,65,30.45,10.0,West,6.9,-,N/A,,Clear,270,2013-12-06 20:35:00
2:55 PM,-0.6,-9.6,66,30.45,10.0,West,9.2,-,N/A,,Clear,270,2013-12-06 20:55:00
3:15 PM,-0.8,-9.6,66,30.46,10.0,West,5.8,-,N/A,,Clear,280,2013-12-06 21:15:00
3:35 PM,-0.8,-9.8,66,30.46,10.0,WNW,8.1,-,N/A,,Clear,290,2013-12-06 21:35:00
3:55 PM,-0.8,-9.6,66,30.46,10.0,West,8.1,-,N/A,,Clear,280,2013-12-06 21:55:00
4:15 PM,-1.3,-9.8,67,30.46,10.0,WNW,6.9,-,N/A,,Clear,290,2013-12-06 22:15:00
4:35 PM,-1.5,-9.9,67,30.47,10.0,WNW,8.1,-,N/A,,Clear,290,2013-12-06 22:35:00
5:55 PM,-6.5,-13.2,73,30.49,10.0,West,5.8,-,N/A,,Clear,280,2013-12-06 23:55:00
5:59 PM,-7.6,-14.8,71,30.49,10.0,West,4.6,-,N/A,,Clear,280,2013-12-06 23:59:00
6:15 PM,-6.7,-13.2,73,30.50,10.0,West,4.6,-,N/A,,Clear,270,2013-12-07 00:15:00
6:35 PM,-7.1,-13.2,75,30.50,10.0,West,4.6,-,N/A,,Clear,270,2013-12-07 00:35:00
6:55 PM,-7.6,-13.7,75,30.51,10.0,West,4.6,-,N/A,,Clear,280,2013-12-07 00:55:00
7:15 PM,-7.1,-13.4,74,30.50,10.0,WNW,5.8,-,N/A,,Clear,300,2013-12-07 01:15:00
7:35 PM,-10.8,-17.7,72,30.51,10.0,West,4.6,-,N/A,,Clear,260,2013-12-07 01:35:00
7:55 PM,-12.3,-17.7,77,30.52,10.0,WSW,5.8,-,N/A,,Clear,240,2013-12-07 01:55:00
8:15 PM,-11.9,-17.3,77,30.52,10.0,West,4.6,-,N/A,,Clear,260,2013-12-07 02:15:00
8:35 PM,-10.8,-16.1,78,30.52,10.0,WSW,4.6,-,N/A,,Scattered Clouds,250,2013-12-07 02:35:00
8:55 PM,-13.7,-19.5,75,30.52,10.0,Calm,Calm,-,N/A,,Overcast,0,2013-12-07 02:55:00
9:15 PM,-15.5,-20.7,77,30.52,10.0,WSW,5.8,-,N/A,,Overcast,250,2013-12-07 03:15:00
9:35 PM,-12.1,-17.5,77,30.52,10.0,West,6.9,-,N/A,,Mostly Cloudy,260,2013-12-07 03:35:00
9:55 PM,-12.3,-17.7,77,30.53,10.0,West,5.8,-,N/A,,Scattered Clouds,270,2013-12-07 03:55:00
10:15 PM,-13.2,-18.6,77,30.53,10.0,West,3.5,-,N/A,,Clear,260,2013-12-07 04:15:00
10:35 PM,-14.3,-19.5,77,30.53,10.0,WSW,5.8,-,N/A,,Clear,250,2013-12-07 04:35:00
10:55 PM,-14.1,-19.3,77,30.53,10.0,West,5.8,-,N/A,,Clear,260,2013-12-07 04:55:00
11:15 PM,-13.0,-18.4,77,30.54,10.0,West,4.6,-,N/A,,Scattered Clouds,260,2013-12-07 05:15:00
11:35 PM,-13.9,-19.1,77,30.54,10.0,Calm,Calm,-,N/A,,Mostly Cloudy,0,2013-12-07 05:35:00
11:55 PM,-13.0,-18.2,77,30.53,10.0,Calm,Calm,-,N/A,,Overcast,0,2013-12-07 05:55:00